Time,TemperatureF,DewpointF,PressureIn,WindDirection,WindDirectionDegrees,WindSpeedMPH,WindSpeedGustMPH,Humidity,HourlyPrecipIn,Conditions,Clouds,dailyrainin,SoftwareType,DateUTC
2013-07-05 00:00:00,56.7,54.0,30.02,NNW,347,0.0,-999.0,89,-99.99,,,0.00,weatherlink.com 1.10,2013-07-05 07:00:00,
2013-07-05 00:15:00,56.6,54.0,30.02,North,350,0.0,-999.0,89,-99.99,,,0.00,weatherlink.com 1.10,2013-07-05 07:15:00,
2013-07-05 00:34:00,56.3,53.0,30.02,North,350,0.0,-999.0,89,-99.99,,,0.00,weatherlink.com 1.10,2013-07-05 07:34:00,
2013-07-05 00:45:00,55.8,53.0,30.02,North,350,0.0,-999.0,90,-99.99,,,0.00,weatherlink.com 1.10,2013-07-05 07:45:00,
2013-07-05 01:00:00,55.8,53.0,30.02,North,349,0.0,-999.0,91,-99.99,,,0.00,weatherlink.com 1.10,2013-07-05 08:00:00,
2013-07-05 01:15:00,56.0,54.0,30.02,North,349,0.0,-999.0,92,-99.99,,,0.00,weatherlink.com 1.10,2013-07-05 08:15:00,
2013-07-05 01:34:00,56.2,54.0,30.01,North,349,0.0,-999.0,92,-99.99,,,0.00,weatherlink.com 1.10,2013-07-05 08:34:00,
2013-07-05 01:45:00,56.0,54.0,30.02,North,350,0.0,-999.0,92,-99.99,,,0.00,weatherlink.com 1.10,2013-07-05 08:45:00,
2013-07-05 02:00:00,55.8,54.0,30.01,North,351,0.0,-999.0,92,-99.99,,,0.00,weatherlink.com 1.10,2013-07-05 09:00:00,
2013-07-05 02:15:00,55.4,53.0,30.01,North,351,0.0,-999.0,92,-99.99,,,0.00,weatherlink.com 1.10,2013-07-05 09:15:00,
2013-07-05 02:34:00,55.4,54.0,30.01,North,351,0.0,-999.0,93,-99.99,,,0.00,weatherlink.com 1.10,2013-07-05 09:34:00,
2013-07-05 02:45:00,55.7,54.0,30.00,North,351,0.0,-999.0,93,-99.99,,,0.00,weatherlink.com 1.10,2013-07-05 09:45:00,
2013-07-05 03:00:00,55.7,54.0,30.00,North,351,0.0,-999.0,93,-99.99,,,0.00,weatherlink.com 1.10,2013-07-05 10:00:00,
2013-07-05 03:15:00,55.3,53.0,30.00,East,90,0.0,-999.0,93,-99.99,,,0.00,weatherlink.com 1.10,2013-07-05 10:15:00,
2013-07-05 03:34:00,55.2,53.0,30.00,East,90,0.0,-999.0,93,-99.99,,,0.00,weatherlink.com 1.10,2013-07-05 10:34:00,
2013-07-05 03:45:00,54.8,53.0,29.99,East,90,0.0,-999.0,93,-99.99,,,0.00,weatherlink.com 1.10,2013-07-05 10:45:00,
2013-07-05 04:00:00,54.2,53.0,29.99,East,90,0.0,-999.0,94,-99.99,,,0.00,weatherlink.com 1.10,2013-07-05 11:00:00,
2013-07-05 04:15:00,54.1,53.0,29.99,East,90,0.0,-999.0,94,-99.99,,,0.00,weatherlink.com 1.10,2013-07-05 11:15:00,
2013-07-05 04:34:00,54.1,53.0,29.99,East,90,0.0,-999.0,94,-99.99,,,0.00,weatherlink.com 1.10,2013-07-05 11:34:00,
2013-07-05 04:45:00,53.9,52.0,29.99,East,92,0.0,-999.0,94,-99.99,,,0.00,weatherlink.com 1.10,2013-07-05 11:45:00,
2013-07-05 05:00:00,53.4,52.0,29.99,SW,228,0.0,-999.0,94,-99.99,,,0.00,weatherlink.com 1.10,2013-07-05 12:00:00,
2013-07-05 05:15:00,53.2,52.0,29.99,SW,228,0.0,-999.0,94,-99.99,,,0.00,weatherlink.com 1.10,2013-07-05 12:15:00,
2013-07-05 05:34:00,53.0,52.0,29.98,SW,228,0.0,-999.0,95,-99.99,,,0.00,weatherlink.com 1.10,2013-07-05 12:34:00,
2013-07-05 05:45:00,53.0,52.0,29.99,WSW,237,2.0,-999.0,95,-99.99,,,0.00,weatherlink.com 1.10,2013-07-05 12:45:00,
2013-07-05 06:00:00,53.4,52.0,29.99,WSW,239,0.0,-999.0,95,-99.99,,,0.00,weatherlink.com 1.10,2013-07-05 13:00:00,
2013-07-05 06:15:00,53.9,53.0,29.98,WSW,239,0.0,-999.0,95,-99.99,,,0.00,weatherlink.com 1.10,2013-07-05 13:15:00,
2013-07-05 06:34:00,54.2,53.0,29.98,WSW,239,0.0,-999.0,95,-99.99,,,0.00,weatherlink.com 1.10,2013-07-05 13:34:00,
2013-07-05 06:45:00,55.1,54.0,29.98,WSW,239,0.0,-999.0,95,-99.99,,,0.00,weatherlink.com 1.10,2013-07-05 13:45:00,
2013-07-05 07:00:00,56.1,54.0,29.99,North,350,0.0,-999.0,93,-99.99,,,0.00,weatherlink.com 1.10,2013-07-05 14:00:00,
2013-07-05 07:15:00,57.6,55.0,29.99,North,350,0.0,-999.0,91,-99.99,,,0.00,weatherlink.com 1.10,2013-07-05 14:15:00,
2013-07-05 07:35:00,58.9,56.0,29.99,North,350,0.0,-999.0,89,-99.99,,,0.00,weatherlink.com 1.10,2013-07-05 14:35:00,
2013-07-05 07:46:00,59.2,55.0,29.99,North,355,0.0,-999.0,86,-99.99,,,0.00,weatherlink.com 1.10,2013-07-05 14:46:00,
2013-07-05 08:01:00,58.9,54.0,29.99,North,355,0.0,-999.0,85,-99.99,,,0.00,weatherlink.com 1.10,2013-07-05 15:01:00,
2013-07-05 08:16:00,59.5,55.0,29.98,East,84,0.0,-999.0,84,-99.99,,,0.00,weatherlink.com 1.10,2013-07-05 15:16:00,
2013-07-05 08:35:00,59.9,55.0,29.99,East,84,0.0,-999.0,83,-99.99,,,0.00,weatherlink.com 1.10,2013-07-05 15:35:00,
2013-07-05 08:46:00,59.8,55.0,29.99,ENE,76,0.0,-999.0,83,-99.99,,,0.00,weatherlink.com 1.10,2013-07-05 15:46:00,
2013-07-05 09:01:00,60.3,55.0,29.99,ENE,76,0.0,-999.0,83,-99.99,,,0.00,weatherlink.com 1.10,2013-07-05 16:01:00,
2013-07-05 09:16:00,59.0,55.0,29.99,ENE,63,0.0,-999.0,86,-99.99,,,0.00,weatherlink.com 1.10,2013-07-05 16:16:00,
2013-07-05 09:35:00,59.3,55.0,29.99,ENE,63,0.0,-999.0,86,-99.99,,,0.00,weatherlink.com 1.10,2013-07-05 16:35:00,
2013-07-05 09:46:00,60.9,56.0,30.00,ENE,69,0.0,-999.0,83,-99.99,,,0.00,weatherlink.com 1.10,2013-07-05 16:46:00,
2013-07-05 10:01:00,61.6,56.0,29.99,ENE,69,0.0,-999.0,81,-99.99,,,0.00,weatherlink.com 1.10,2013-07-05 17:01:00,
2013-07-05 10:16:00,62.0,55.0,29.99,ENE,70,2.0,-999.0,79,-99.99,,,0.00,weatherlink.com 1.10,2013-07-05 17:16:00,
2013-07-05 10:35:00,59.5,54.0,29.99,NE,53,5.0,-999.0,82,-99.99,,,0.00,weatherlink.com 1.10,2013-07-05 17:35:00,
2013-07-05 10:46:00,58.9,55.0,29.99,NE,47,1.0,-999.0,86,-99.99,,,0.00,weatherlink.com 1.10,2013-07-05 17:46:00,
2013-07-05 11:16:00,60.0,55.0,29.99,NE,46,10.0,-999.0,82,-99.99,,,0.00,weatherlink.com 1.10,2013-07-05 18:16:00,
2013-07-05 11:35:00,60.7,55.0,29.98,NNE,24,10.0,-999.0,81,-99.99,,,0.00,weatherlink.com 1.10,2013-07-05 18:35:00,
2013-07-05 11:46:00,63.0,56.0,29.98,North,5,8.0,-999.0,78,-99.99,,,0.00,weatherlink.com 1.10,2013-07-05 18:46:00,
2013-07-05 12:01:00,64.3,56.0,29.98,NNE,12,0.0,-999.0,75,-99.99,,,0.00,weatherlink.com 1.10,2013-07-05 19:01:00,
2013-07-05 12:16:00,64.9,56.0,29.98,NNW,348,5.0,-999.0,72,-99.99,,,0.00,weatherlink.com 1.10,2013-07-05 19:16:00,
2013-07-05 12:35:00,65.1,55.0,29.98,NNW,346,3.0,-999.0,71,-99.99,,,0.00,weatherlink.com 1.10,2013-07-05 19:35:00,
2013-07-05 12:46:00,66.1,56.0,29.98,North,5,5.0,-999.0,69,-99.99,,,0.00,weatherlink.com 1.10,2013-07-05 19:46:00,
2013-07-05 13:01:00,65.1,55.0,29.98,NNE,17,5.0,-999.0,71,-99.99,,,0.00,weatherlink.com 1.10,2013-07-05 20:01:00,
2013-07-05 13:16:00,62.3,55.0,29.98,NE,48,3.0,-999.0,76,-99.99,,,0.00,weatherlink.com 1.10,2013-07-05 20:16:00,
2013-07-05 13:35:00,62.8,55.0,29.98,NNE,28,1.0,-999.0,76,-99.99,,,0.00,weatherlink.com 1.10,2013-07-05 20:35:00,
2013-07-05 13:46:00,63.0,55.0,29.98,ENE,62,2.0,-999.0,75,-99.99,,,0.00,weatherlink.com 1.10,2013-07-05 20:46:00,
2013-07-05 14:01:00,63.8,56.0,29.99,NE,46,2.0,-999.0,75,-99.99,,,0.00,weatherlink.com 1.10,2013-07-05 21:01:00,
2013-07-05 14:35:00,64.7,56.0,29.98,WSW,257,9.0,-999.0,74,-99.99,,,0.00,weatherlink.com 1.10,2013-07-05 21:35:00,
2013-07-05 14:46:00,64.5,56.0,29.98,WNW,286,0.0,-999.0,74,-99.99,,,0.00,weatherlink.com 1.10,2013-07-05 21:46:00,
2013-07-05 15:01:00,64.7,56.0,29.98,WNW,287,5.0,-999.0,74,-99.99,,,0.00,weatherlink.com 1.10,2013-07-05 22:01:00,
2013-07-05 15:16:00,63.7,56.0,29.98,West,271,3.0,-999.0,77,-99.99,,,0.00,weatherlink.com 1.10,2013-07-05 22:16:00,
2013-07-05 15:35:00,64.3,57.0,29.98,NNW,348,4.0,-999.0,76,-99.99,,,0.00,weatherlink.com 1.10,2013-07-05 22:35:00,
2013-07-05 15:46:00,64.3,57.0,29.98,NW,304,4.0,-999.0,76,-99.99,,,0.00,weatherlink.com 1.10,2013-07-05 22:46:00,
2013-07-05 16:01:00,63.9,56.0,29.97,West,270,11.0,-999.0,75,-99.99,,,0.00,weatherlink.com 1.10,2013-07-05 23:01:00,
2013-07-05 16:16:00,63.8,56.0,29.97,WNW,296,6.0,-999.0,76,-99.99,,,0.00,weatherlink.com 1.10,2013-07-05 23:16:00,
2013-07-05 16:35:00,62.6,56.0,29.97,WNW,284,3.0,-999.0,79,-99.99,,,0.00,weatherlink.com 1.10,2013-07-05 23:35:00,
2013-07-05 16:46:00,62.5,56.0,29.97,West,275,5.0,-999.0,79,-99.99,,,0.00,weatherlink.com 1.10,2013-07-05 23:46:00,
2013-07-05 17:01:00,62.7,56.0,29.96,WNW,302,6.0,-999.0,79,-99.99,,,0.00,weatherlink.com 1.10,2013-07-06 00:01:00,
2013-07-05 17:16:00,62.1,56.0,29.96,SE,125,2.0,-999.0,81,-99.99,,,0.00,weatherlink.com 1.10,2013-07-06 00:16:00,
2013-07-05 17:35:00,62.1,56.0,29.96,WNW,296,0.0,-999.0,81,-99.99,,,0.00,weatherlink.com 1.10,2013-07-06 00:35:00,
2013-07-05 17:46:00,62.7,56.0,29.95,NW,314,0.0,-999.0,80,-99.99,,,0.00,weatherlink.com 1.10,2013-07-06 00:46:00,
2013-07-05 18:01:00,63.1,57.0,29.95,NW,314,0.0,-999.0,79,-99.99,,,0.00,weatherlink.com 1.10,2013-07-06 01:01:00,
2013-07-05 18:16:00,63.4,56.0,29.95,WSW,257,5.0,-999.0,78,-99.99,,,0.00,weatherlink.com 1.10,2013-07-06 01:16:00,
2013-07-05 18:35:00,62.8,57.0,29.95,West,271,9.0,-999.0,80,-99.99,,,0.00,weatherlink.com 1.10,2013-07-06 01:35:00,
2013-07-05 18:46:00,61.4,56.0,29.95,West,270,0.0,-999.0,82,-99.99,,,0.00,weatherlink.com 1.10,2013-07-06 01:46:00,
2013-07-05 19:01:00,61.3,56.0,29.95,West,265,0.0,-999.0,83,-99.99,,,0.00,weatherlink.com 1.10,2013-07-06 02:01:00,
2013-07-05 19:16:00,61.1,56.0,29.95,WSW,251,0.0,-999.0,84,-99.99,,,0.00,weatherlink.com 1.10,2013-07-06 02:16:00,
2013-07-05 19:35:00,61.4,57.0,29.95,NNE,20,3.0,-999.0,84,-99.99,,,0.00,weatherlink.com 1.10,2013-07-06 02:35:00,
2013-07-05 19:46:00,59.1,55.0,29.95,NNE,27,1.0,-999.0,87,-99.99,,,0.00,weatherlink.com 1.10,2013-07-06 02:46:00,
2013-07-05 20:01:00,58.7,56.0,29.95,NNE,27,0.0,-999.0,89,-99.99,,,0.00,weatherlink.com 1.10,2013-07-06 03:01:00,
2013-07-05 20:16:00,57.8,55.0,29.95,NE,56,0.0,-999.0,90,-99.99,,,0.00,weatherlink.com 1.10,2013-07-06 03:16:00,
2013-07-05 20:44:00,57.5,55.0,29.95,NE,56,0.0,-999.0,91,-99.99,,,0.00,weatherlink.com 1.10,2013-07-06 03:44:00,
2013-07-05 21:01:00,57.1,55.0,29.95,NE,56,0.0,-999.0,92,-99.99,,,0.00,weatherlink.com 1.10,2013-07-06 04:01:00,
2013-07-05 21:16:00,57.0,55.0,29.95,NE,56,0.0,-999.0,92,-99.99,,,0.00,weatherlink.com 1.10,2013-07-06 04:16:00,
2013-07-05 21:37:00,56.8,55.0,29.95,NE,56,0.0,-999.0,92,-99.99,,,0.00,weatherlink.com 1.10,2013-07-06 04:37:00,
2013-07-05 21:47:00,56.4,55.0,29.95,NE,56,0.0,-999.0,93,-99.99,,,0.00,weatherlink.com 1.10,2013-07-06 04:47:00,
2013-07-05 22:02:00,56.3,54.0,29.95,NE,56,0.0,-999.0,93,-99.99,,,0.00,weatherlink.com 1.10,2013-07-06 05:02:00,
2013-07-05 22:17:00,55.9,54.0,29.95,NE,56,0.0,-999.0,93,-99.99,,,0.00,weatherlink.com 1.10,2013-07-06 05:17:00,
2013-07-05 22:35:00,55.9,54.0,29.95,NE,56,0.0,-999.0,94,-99.99,,,0.00,weatherlink.com 1.10,2013-07-06 05:35:00,
2013-07-05 22:46:00,55.6,54.0,29.95,NE,56,0.0,-999.0,94,-99.99,,,0.00,weatherlink.com 1.10,2013-07-06 05:46:00,
2013-07-05 23:01:00,55.4,54.0,29.96,NE,56,0.0,-999.0,94,-99.99,,,0.00,weatherlink.com 1.10,2013-07-06 06:01:00,
2013-07-05 23:16:00,55.4,54.0,29.95,NE,56,0.0,-999.0,94,-99.99,,,0.00,weatherlink.com 1.10,2013-07-06 06:16:00,
2013-07-05 23:36:00,55.4,54.0,29.95,NE,56,0.0,-999.0,94,-99.99,,,0.00,weatherlink.com 1.10,2013-07-06 06:36:00,
2013-07-05 23:46:00,54.9,53.0,29.95,NE,56,0.0,-999.0,94,-99.99,,,0.00,weatherlink.com 1.10,2013-07-06 06:46:00,